Vorticity
9 8 10 20 10 -2 13 5 3 5 13 12 18 5 -12 26 34 45 -2 24 12 -9
-4 -4 22 11 5 5 4 8 12 6 6 2 1 8 12 19 4 23 -3 27 -5 1
-4 21 -1 8 2 4 1 6 9 9 9 12 12 17 37 16 -1 14 11 -8 14 19
-1 8 13 5 8 6 7 3 9 9 14 8 5 19 -17 2 7 14 2 -11 13 14
18 6 8 7 7 9 6 9 8 9 4 9 21 3 11 -5 10 16 0 9 -3 9
19 6 7 12 10 5 5 4 7 10 8 10 24 -5 23 0 18 -1 -3 11 13 8
11 13 6 6 4 4 3 8 8 8 -2 30 6 -11 12 9 -2 2 9 16 0 13
5 4 3 5 4 3 6 8 7 15 27 -32 17 12 10 -3 19 10 18 12 12 13
3 2 4 5 7 9 9 10 13 13 7 9 11 7 23 10 9 8 11 12 10 6
4 4 10 6 8 13 12 10 9 9 8 11 16 15 13 11 11 10 8 6 6 8
13 6 7 11 13 10 8 9 9 11 14 12 10 11 10 8 6 5 5 9 7 6
7 11 13 9 7 9 10 10 13 16 15 8 9 7 8 7 7 9 8 7 7 8
11 8 7 9 10 10 11 14 13 8 10 9 9 8 8 9 9 7 6 7 8 6
8 9 7 8 10 11 13 9 9 11 9 9 6 8 9 9 7 6 8 7 5 7
Height
3113 3116 3115 3111 3114 3114 3115 3117 3117 3116 3115 3114 3113 3111 3109 3105 3102 3101 3102 3105 3103 3101
3108 3108 3108 3107 3109 3109 3109 3109 3110 3109 3109 3108 3106 3104 3101 3098 3097 3097 3098 3097 3096 3094
3100 3098 3100 3099 3098 3106 3105 3105 3104 3104 3102 3101 3100 3097 3094 3093 3093 3092 3091 3089 3088 3085
3093 3095 3096 3096 3101 3101 3101 3100 3099 3098 3096 3095 3093 3091 3089 3087 3086 3085 3084 3079 3078 3077
3090 3091 3093 3094 3094 3095 3095 3095 3093 3091 3090 3088 3087 3084 3084 3082 3080 3078 3076 3073 3070 3068
3086 3087 3088 3089 3090 3089 3089 3087 3086 3084 3082 3081 3080 3078 3077 3073 3072 3070 3068 3065 3063 3059
3081 3082 3082 3083 3083 3082 3081 3079 3078 3077 3075 3075 3073 3070 3070 3067 3064 3062 3059 3057 3054 3050
3077 3076 3076 3075 3075 3074 3073 3072 3070 3069 3067 3066 3064 3062 3060 3057 3055 3053 3051 3049 3045 3042
3070 3070 3070 3069 3068 3067 3065 3064 3063 3062 3061 3058 3056 3053 3050 3049 3047 3045 3043 3040 3037 3034
3063 3063 3062 3062 3060 3060 3058 3057 3056 3054 3051 3048 3044 3042 3043 3042 3040 3037 3034 3031 3028 3025
3056 3056 3055 3054 3052 3051 3050 3048 3046 3044 3042 3039 3037 3037 3036 3034 3031 3028 3026 3023 3019 3014
3049 3048 3047 3047 3045 3042 3040 3039 3037 3036 3034 3030 3030 3029 3030 3026 3023 3019 3017 3013 3009 3004
3041 3040 3039 3038 3037 3034 3033 3031 3030 3028 3027 3023 3022 3020 3021 3018 3014 3010 3007 3003 2998 2994
3033 3032 3031 3030 3029 3026 3025 3023 3022 3020 3018 3016 3013 3012 3011 3008 3002 2998 2995 2992 2987 2983